QPF
0.00 0.00 0.00 0.00 0.00 0.00 0.00 0.00 0.00 0.00 0.00 0.00 0.00 0.00 0.00 0.00 0.00 0.00 0.00 0.00 0.00 0.00 0.00 0.00 0.00 0.00 0.00 0.00 0.00 0.00 0.00 0.00 0.00 0.00 0.00 0.00 0.00 0.00 0.00 0.00 0.00 0.00 0.00 0.00
0.00 0.00 0.00 0.00 0.00 0.00 0.00 0.00 0.00 0.00 0.00 0.00 0.00 0.00 0.00 0.00 0.00 0.00 0.00 0.00 0.00 0.00 0.00 0.00 0.00 0.00 0.00 0.00 0.00 0.00 0.00 0.00 0.00 0.00 0.00 0.00 0.00 0.00 0.00 0.00 0.00 0.00 0.00 0.00
0.00 0.00 0.00 0.00 0.00 0.00 0.00 0.00 0.00 0.00 0.00 0.00 0.00 0.00 0.00 0.00 0.00 0.00 0.00 0.00 0.00 0.00 0.00 0.00 0.00 0.00 0.00 0.00 0.00 0.00 0.00 0.00 0.00 0.00 0.00 0.00 0.00 0.00 0.00 0.00 0.00 0.00 0.00 0.00
0.00 0.00 0.00 0.00 0.00 0.00 0.00 0.00 0.00 0.00 0.00 0.00 0.00 0.00 0.00 0.00 0.00 0.00 0.00 0.00 0.00 0.00 0.00 0.00 0.00 0.00 0.00 0.00 0.00 0.00 0.00 0.00 0.00 0.00 0.00 0.00 0.00 0.00 0.00 0.00 0.00 0.00 0.00 0.00
0.00 0.00 0.00 0.00 0.00 0.00 0.00 0.00 0.00 0.00 0.00 0.00 0.00 0.00 0.00 0.00 0.00 0.00 0.00 0.00 0.00 0.00 0.00 0.00 0.00 0.00 0.00 0.00 0.00 0.00 0.00 0.00 0.00 0.00 0.00 0.00 0.00 0.00 0.00 0.00 0.00 0.00 0.00 0.00
0.00 0.00 0.00 0.00 0.00 0.00 0.00 0.00 0.00 0.00 0.00 0.00 0.00 0.00 0.00 0.00 0.00 0.00 0.00 0.00 0.00 0.00 0.00 0.00 0.00 0.00 0.00 0.00 0.00 0.00 0.00 0.00 0.00 0.00 0.00 0.00 0.00 0.00 0.00 0.00 0.00 0.00 0.00 0.00
0.00 0.00 0.00 0.00 0.00 0.00 0.00 0.00 0.00 0.00 0.00 0.00 0.00 0.00 0.00 0.00 0.00 0.00 0.00 0.00 0.00 0.00 0.00 0.00 0.00 0.00 0.00 0.00 0.00 0.00 0.00 0.00 0.00 0.00 0.00 0.00 0.00 0.00 0.00 0.00 0.00 0.00 0.00 0.00
0.00 0.00 0.00 0.00 0.00 0.00 0.00 0.00 0.00 0.00 0.00 0.00 0.00 0.00 0.00 0.00 0.00 0.00 0.00 0.00 0.00 0.00 0.00 0.00 0.00 0.00 0.00 0.00 0.00 0.00 0.00 0.00 0.00 0.00 0.00 0.00 0.00 0.00 0.00 0.00 0.00 0.00 0.00 0.00
0.00 0.00 0.00 0.00 0.00 0.00 0.00 0.00 0.00 0.00 0.00 0.00 0.00 0.00 0.00 0.00 0.00 0.00 0.00 0.00 0.00 0.00 0.00 0.00 0.00 0.00 0.00 0.00 0.00 0.00 0.00 0.00 0.00 0.00 0.00 0.01 0.01 0.01 0.00 0.00 0.00 0.00 0.00 0.00
0.00 0.00 0.00 0.00 0.00 0.00 0.00 0.00 0.00 0.00 0.00 0.00 0.00 0.00 0.00 0.00 0.00 0.00 0.00 0.00 0.00 0.00 0.00 0.00 0.00 0.00 0.00 0.00 0.00 0.00 0.00 0.00 0.00 0.00 0.00 0.01 0.01 0.02 0.02 0.01 0.01 0.00 0.00 0.00
0.00 0.00 0.00 0.00 0.00 0.00 0.00 0.00 0.00 0.00 0.00 0.00 0.00 0.00 0.00 0.00 0.00 0.00 0.00 0.00 0.00 0.00 0.00 0.00 0.00 0.00 0.00 0.00 0.00 0.00 0.00 0.00 0.00 0.00 0.01 0.02 0.02 0.02 0.03 0.02 0.02 0.02 0.01 0.00
0.00 0.00 0.00 0.00 0.00 0.00 0.00 0.00 0.00 0.00 0.00 0.00 0.00 0.00 0.00 0.00 0.00 0.00 0.00 0.00 0.00 0.00 0.00 0.00 0.00 0.00 0.00 0.00 0.00 0.00 0.00 0.00 0.00 0.00 0.00 0.00 0.02 0.04 0.04 0.03 0.03 0.03 0.02 0.01
0.00 0.00 0.00 0.00 0.00 0.00 0.00 0.00 0.00 0.00 0.00 0.00 0.00 0.00 0.00 0.00 0.00 0.00 0.00 0.00 0.00 0.00 0.00 0.00 0.00 0.00 0.00 0.00 0.00 0.00 0.00 0.00 0.00 0.00 0.00 0.00 0.00 0.02 0.01 0.04 0.03 0.04 0.03 0.01
0.00 0.00 0.00 0.00 0.00 0.00 0.00 0.00 0.00 0.00 0.00 0.00 0.00 0.00 0.00 0.00 0.00 0.00 0.00 0.00 0.00 0.00 0.00 0.00 0.00 0.00 0.00 0.00 0.00 0.00 0.00 0.00 0.00 0.00 0.00 0.00 0.00 0.01 0.03 0.01 0.02 0.02 0.01 0.03
0.00 0.00 0.00 0.00 0.00 0.00 0.00 0.00 0.00 0.00 0.00 0.00 0.00 0.00 0.00 0.00 0.00 0.00 0.00 0.00 0.00 0.00 0.00 0.00 0.00 0.00 0.00 0.00 0.00 0.00 0.00 0.00 0.00 0.01 0.00 0.00 0.00 0.00 0.01 0.00 0.01 0.03 0.03 0.01
0.00 0.00 0.00 0.00 0.00 0.00 0.00 0.00 0.00 0.00 0.00 0.00 0.00 0.00 0.00 0.00 0.00 0.00 0.00 0.00 0.00 0.00 0.00 0.00 0.00 0.00 0.00 0.00 0.00 0.00 0.00 0.01 0.00 0.01 0.01 0.02 0.00 0.00 0.00 0.00 0.01 0.03 0.03 0.02
0.00 0.00 0.00 0.00 0.00 0.00 0.00 0.00 0.00 0.00 0.00 0.00 0.00 0.00 0.00 0.00 0.00 0.00 0.00 0.00 0.00 0.00 0.00 0.00 0.00 0.00 0.01 0.03 0.03 0.00 0.00 0.00 0.01 0.01 0.01 0.02 0.05 0.06 0.02 0.00 0.00 0.00 0.00 0.00
0.00 0.00 0.00 0.00 0.00 0.00 0.00 0.00 0.00 0.00 0.00 0.00 0.00 0.00 0.00 0.00 0.00 0.00 0.00 0.00 0.00 0.00 0.00 0.00 0.00 0.00 0.04 0.05 0.01 0.00 0.01 0.01 0.01 0.01 0.01 0.01 0.03 0.03 0.04 0.04 0.01 0.01 0.01 0.01
0.00 0.00 0.00 0.00 0.00 0.00 0.00 0.00 0.00 0.00 0.00 0.00 0.00 0.00 0.00 0.00 0.00 0.00 0.00 0.00 0.00 0.00 0.00 0.00 0.00 0.01 0.05 0.01 0.00 0.01 0.01 0.00 0.01 0.01 0.00 0.01 0.00 0.04 0.01 0.00 0.01 0.01 0.01 0.00
0.00 0.00 0.00 0.00 0.00 0.00 0.00 0.00 0.00 0.00 0.00 0.00 0.00 0.00 0.00 0.00 0.00 0.00 0.00 0.00 0.00 0.00 0.00 0.00 0.00 0.02 0.02 0.00 0.00 0.00 0.00 0.00 0.00 0.00 0.00 0.00 0.00 0.00 0.00 0.00 0.00 0.00 0.00 0.00
0.00 0.00 0.00 0.00 0.00 0.00 0.00 0.00 0.00 0.00 0.00 0.00 0.00 0.00 0.00 0.00 0.00 0.00 0.00 0.00 0.00 0.00 0.00 0.00 0.01 0.04 0.01 0.00 0.00 0.00 0.01 0.00 0.00 0.00 0.00 0.00 0.00 0.00 0.00 0.00 0.00 0.00 0.00 0.01
0.00 0.00 0.00 0.00 0.00 0.00 0.00 0.00 0.00 0.00 0.00 0.00 0.00 0.00 0.00 0.00 0.00 0.00 0.00 0.00 0.00 0.01 0.02 0.00 0.00 0.00 0.00 0.00 0.03 0.02 0.02 0.00 0.00 0.00 0.00 0.00 0.00 0.00 0.00 0.00 0.00 0.01 0.01 0.01
0.00 0.00 0.00 0.00 0.00 0.00 0.00 0.00 0.00 0.00 0.00 0.00 0.00 0.00 0.00 0.00 0.00 0.00 0.00 0.00 0.00 0.03 0.03 0.02 0.00 0.00 0.00 0.02 0.08 0.08 0.04 0.00 0.00 0.00 0.00 0.00 0.00 0.00 0.00 0.00 0.00 0.01 0.01 0.01
0.00 0.00 0.00 0.00 0.00 0.00 0.00 0.00 0.00 0.00 0.00 0.00 0.00 0.00 0.00 0.00 0.00 0.00 0.00 0.00 0.01 0.07 0.10 0.07 0.00 0.00 0.01 0.05 0.08 0.10 0.06 0.01 0.00 0.00 0.00 0.00 0.00 0.00 0.00 0.00 0.00 0.00 0.01 0.00
0.00 0.00 0.00 0.00 0.00 0.00 0.00 0.00 0.00 0.00 0.00 0.00 0.00 0.00 0.00 0.00 0.00 0.00 0.00 0.00 0.01 0.02 0.14 0.13 0.01 0.00 0.00 0.01 0.01 0.01 0.01 0.00 0.00 0.00 0.00 0.00 0.00 0.00 0.00 0.00 0.00 0.00 0.00 0.00
0.00 0.00 0.00 0.00 0.00 0.00 0.00 0.00 0.00 0.00 0.00 0.00 0.00 0.00 0.00 0.00 0.00 0.00 0.00 0.01 0.02 0.01 0.11 0.18 0.08 0.01 0.02 0.02 0.06 0.10 0.07 0.02 0.00 0.00 0.00 0.00 0.00 0.00 0.00 0.00 0.00 0.00 0.00 0.00
MSLP
1005.21 1004.19 1003.16 1003.15 1003.43 1003.43 1003.30 1002.78 1002.24 1002.20 1002.57 1002.34 1001.83 1001.71 1001.90 1002.19 1002.00 1002.17 1002.35 1002.52 1002.63 1002.96 1003.59 1004.49 1005.46 1006.27 1006.74 1008.02 1008.68 1009.26 1010.00 1010.34 1010.97 1011.20 1011.70 1012.00 1012.12 1012.59 1012.87 1013.03 1013.65 1014.23 1014.67 1015.13
1004.75 1003.51 1003.56 1003.81 1003.81 1003.64 1003.18 1002.66 1002.00 1002.20 1002.60 1002.31 1001.57 1001.65 1002.00 1002.29 1002.57 1002.80 1002.76 1003.26 1003.33 1003.32 1004.01 1004.70 1005.49 1006.15 1006.74 1007.68 1008.44 1009.06 1009.47 1009.88 1010.04 1010.76 1011.15 1011.41 1011.88 1011.99 1012.18 1012.39 1012.82 1013.59 1013.95 1014.36
1003.49 1003.44 1004.07 1003.97 1003.56 1003.48 1002.88 1002.55 1002.21 1002.28 1002.15 1001.91 1001.77 1001.31 1001.67 1002.05 1002.41 1002.69 1003.10 1003.68 1004.20 1004.52 1004.76 1005.31 1005.64 1006.03 1006.07 1007.25 1008.11 1008.57 1008.93 1009.22 1009.73 1010.87 1011.18 1011.61 1011.47 1011.83 1011.77 1011.59 1012.05 1012.58 1013.05 1013.38
1003.71 1003.90 1003.96 1003.55 1003.32 1003.29 1002.22 1003.14 1002.98 1002.64 1002.13 1000.92 1001.79 1000.50 1001.01 1001.81 1001.93 1002.35 1002.98 1003.52 1004.22 1004.91 1005.38 1005.73 1005.88 1006.40 1006.74 1007.10 1007.32 1007.76 1008.20 1008.80 1009.36 1010.48 1010.55 1010.38 1009.79 1010.12 1010.80 1010.76 1011.02 1011.52 1012.33 1012.59
1003.54 1003.73 1003.64 1003.39 1003.78 1003.66 1003.30 1003.43 1003.03 1002.68 1002.13 1001.79 1001.10 1001.14 1000.41 1001.53 1001.77 1002.17 1002.96 1003.73 1004.34 1004.98 1005.53 1005.92 1006.30 1006.64 1006.85 1007.10 1007.21 1007.21 1007.24 1007.99 1008.79 1009.47 1009.56 1009.57 1009.58 1009.58 1010.25 1009.79 1010.31 1011.04 1011.47 1011.91
1003.57 1004.23 1004.04 1003.62 1004.14 1004.10 1003.96 1003.44 1002.95 1002.60 1001.83 1001.18 1001.00 1001.55 1000.48 1000.83 1001.93 1002.65 1003.31 1003.95 1004.57 1005.01 1005.44 1005.97 1006.48 1006.89 1007.05 1007.14 1007.21 1007.29 1007.32 1007.47 1008.07 1008.83 1009.23 1009.05 1008.84 1009.15 1009.14 1009.51 1009.57 1009.87 1010.62 1011.23
1003.45 1003.55 1004.04 1004.18 1003.78 1003.84 1003.45 1002.54 1001.64 1001.35 1000.92 1000.78 1002.04 1002.10 1001.35 1002.13 1002.98 1003.45 1003.97 1004.25 1004.70 1005.12 1005.44 1005.84 1006.20 1006.69 1006.95 1007.17 1007.44 1007.57 1007.68 1007.67 1007.60 1007.68 1008.11 1008.53 1008.59 1008.71 1008.44 1008.46 1008.94 1008.92 1009.33 1009.60
1002.79 1003.17 1003.83 1004.33 1004.06 1003.89 1003.84 1003.70 1002.96 1002.29 1001.89 1001.59 1002.41 1002.03 1001.77 1003.27 1003.77 1004.14 1004.47 1004.68 1004.87 1005.10 1005.41 1005.85 1006.23 1006.64 1006.83 1007.03 1007.17 1007.33 1007.44 1007.58 1007.32 1006.96 1006.75 1006.97 1007.53 1007.68 1007.73 1007.79 1007.59 1008.10 1008.03 1008.39
1003.25 1003.32 1004.48 1004.74 1004.71 1004.79 1004.14 1003.99 1004.29 1003.70 1003.05 1002.98 1002.14 1002.02 1002.62 1003.47 1003.72 1003.96 1004.18 1004.51 1004.93 1005.48 1005.80 1005.98 1006.22 1006.57 1006.81 1006.82 1006.84 1006.98 1007.00 1006.93 1006.71 1006.20 1006.00 1006.07 1006.40 1006.94 1006.82 1006.93 1007.17 1007.40 1007.52 1007.78
1004.19 1003.86 1004.26 1004.93 1005.22 1005.30 1004.97 1004.99 1004.33 1003.71 1003.47 1002.68 1002.01 1002.64 1002.50 1003.13 1003.59 1004.01 1004.29 1004.74 1005.21 1005.67 1005.85 1005.93 1006.02 1006.27 1006.56 1006.67 1006.64 1006.71 1006.57 1006.51 1006.47 1006.03 1005.70 1005.69 1005.92 1006.29 1006.44 1006.53 1006.37 1006.64 1006.95 1007.46
1004.56 1004.69 1004.35 1005.08 1004.62 1004.27 1004.84 1004.62 1005.03 1004.77 1004.66 1003.64 1002.90 1002.01 1002.89 1003.49 1003.85 1004.22 1004.51 1005.04 1005.71 1006.02 1006.15 1006.18 1006.23 1006.23 1006.35 1006.45 1006.41 1006.47 1006.34 1006.38 1006.15 1006.01 1005.79 1005.57 1005.35 1005.44 1005.81 1005.96 1005.81 1006.30 1006.58 1006.79
1005.52 1004.95 1004.42 1004.24 1005.13 1005.66 1005.43 1004.79 1005.15 1004.75 1004.66 1004.34 1004.24 1003.40 1003.16 1003.91 1004.48 1004.83 1004.91 1005.29 1005.77 1006.05 1006.09 1006.10 1006.12 1006.28 1006.22 1006.25 1006.23 1006.15 1006.23 1006.19 1006.12 1005.92 1005.95 1005.78 1005.62 1005.20 1004.91 1004.70 1005.14 1005.63 1006.10 1006.33
1006.10 1005.54 1005.00 1004.41 1005.01 1005.59 1005.39 1005.32 1005.70 1005.85 1005.88 1005.05 1004.15 1003.19 1003.38 1003.88 1004.32 1004.89 1005.83 1005.95 1006.09 1006.03 1005.97 1006.07 1006.06 1006.11 1006.13 1006.23 1006.09 1006.03 1006.06 1006.01 1005.92 1005.93 1005.86 1005.63 1005.31 1005.41 1004.97 1004.87 1005.11 1005.42 1005.48 1005.62
1007.43 1006.38 1006.24 1005.29 1004.88 1005.40 1005.47 1005.63 1005.66 1005.70 1005.46 1004.53 1003.95 1003.35 1003.72 1004.10 1004.55 1005.17 1006.02 1006.35 1006.35 1006.13 1006.01 1005.97 1006.04 1006.02 1005.86 1005.89 1005.84 1005.98 1005.94 1005.84 1005.79 1006.07 1005.93 1005.67 1005.40 1004.76 1004.66 1004.54 1004.31 1004.62 1004.72 1005.05
1007.28 1006.90 1006.59 1006.35 1006.15 1006.15 1006.00 1005.77 1005.63 1005.39 1005.23 1004.69 1004.21 1003.98 1004.18 1004.63 1005.21 1006.01 1006.45 1006.38 1006.27 1006.06 1005.87 1005.94 1006.02 1005.89 1005.74 1005.70 1005.80 1005.67 1005.88 1005.77 1005.76 1005.94 1005.71 1005.56 1005.46 1005.00 1004.25 1003.75 1003.56 1003.47 1003.78 1004.00
1007.54 1007.29 1007.28 1006.88 1006.63 1006.37 1006.00 1005.65 1005.39 1005.16 1004.87 1004.41 1004.31 1004.22 1004.36 1005.62 1006.00 1006.01 1006.20 1006.31 1006.24 1006.03 1005.84 1005.93 1006.01 1006.00 1005.93 1005.95 1006.43 1006.48 1006.06 1005.59 1005.70 1005.52 1005.40 1005.44 1005.28 1005.00 1004.38 1003.74 1003.55 1003.47 1003.61 1003.59
1007.91 1007.64 1007.42 1006.56 1006.51 1006.39 1005.88 1004.91 1004.57 1004.53 1004.42 1004.38 1004.31 1004.42 1005.24 1005.74 1005.98 1006.17 1006.36 1006.44 1006.25 1006.09 1006.02 1006.01 1006.01 1006.08 1006.17 1006.19 1006.33 1006.15 1006.05 1005.86 1005.45 1005.27 1004.89 1004.90 1005.17 1005.03 1004.79 1004.50 1004.19 1004.02 1004.10 1004.38
1008.17 1008.28 1008.00 1007.00 1006.87 1005.72 1004.79 1005.17 1005.15 1005.09 1004.74 1004.80 1005.10 1005.42 1006.04 1006.34 1006.58 1006.55 1006.55 1006.59 1006.43 1006.21 1006.18 1006.23 1006.19 1006.57 1006.49 1006.40 1006.27 1006.22 1006.10 1005.99 1005.55 1005.14 1005.12 1004.84 1004.62 1004.32 1004.36 1004.69 1004.17 1003.83 1004.02 1004.21
1008.19 1008.20 1007.51 1007.10 1005.86 1004.94 1004.77 1004.46 1005.52 1005.23 1005.02 1005.01 1005.82 1006.10 1006.17 1006.30 1006.65 1005.79 1005.87 1006.54 1006.58 1006.41 1006.31 1006.27 1006.43 1006.87 1006.60 1006.46 1006.62 1006.32 1006.13 1005.78 1005.36 1005.14 1004.88 1004.72 1004.45 1004.27 1004.21 1004.12 1003.84 1003.60 1003.46 1003.61
1008.27 1008.58 1008.11 1006.86 1006.34 1005.19 1004.93 1005.92 1006.46 1006.52 1005.38 1005.21 1006.29 1006.37 1006.33 1006.48 1005.93 1005.37 1006.15 1006.46 1006.31 1006.10 1006.02 1006.06 1006.25 1006.39 1006.29 1006.54 1006.73 1006.39 1006.16 1005.78 1005.69 1005.62 1005.15 1004.77 1004.61 1004.23 1004.07 1004.02 1003.91 1003.47 1003.16 1003.18
1007.71 1007.92 1007.44 1006.70 1006.21 1005.76 1005.55 1006.36 1006.84 1006.42 1006.32 1006.20 1006.43 1006.56 1006.60 1006.41 1006.40 1006.45 1006.42 1006.02 1005.93 1005.72 1005.61 1005.92 1006.12 1006.05 1006.09 1006.30 1006.39 1005.97 1006.37 1005.80 1006.04 1005.74 1005.21 1004.92 1004.66 1004.43 1004.34 1004.07 1004.01 1003.46 1003.30 1003.45
1007.05 1006.99 1006.46 1006.56 1006.38 1005.80 1006.24 1006.69 1006.72 1006.21 1006.39 1006.31 1006.44 1006.46 1006.51 1006.50 1006.41 1006.30 1006.06 1005.94 1005.69 1005.47 1005.36 1005.94 1005.92 1006.03 1006.37 1006.37 1006.40 1006.25 1006.26 1006.30 1005.86 1005.70 1005.65 1005.36 1005.03 1004.66 1004.49 1004.06 1003.92 1003.50 1003.75 1004.03
1007.31 1007.04 1006.67 1006.61 1006.14 1006.81 1006.85 1006.93 1006.81 1006.74 1006.68 1006.46 1006.31 1006.28 1006.47 1006.37 1006.17 1006.09 1006.01 1005.87 1005.64 1005.37 1005.54 1005.76 1005.56 1005.93 1006.33 1006.60 1006.58 1006.51 1006.13 1006.25 1006.01 1005.55 1005.57 1005.40 1005.23 1005.04 1004.67 1004.23 1003.64 1003.91 1004.47 1004.57
1006.87 1007.49 1007.44 1007.04 1006.75 1006.56 1006.67 1006.66 1006.49 1006.48 1006.54 1006.42 1006.33 1006.36 1006.35 1006.21 1006.17 1006.11 1006.09 1005.94 1006.21 1005.82 1005.63 1005.61 1005.68 1006.11 1006.38 1006.59 1006.64 1006.74 1006.23 1005.95 1005.81 1005.48 1005.43 1005.29 1005.15 1005.10 1005.01 1004.47 1004.25 1003.77 1004.08 1004.55
1006.89 1007.66 1007.10 1006.85 1006.97 1006.96 1006.65 1006.59 1006.78 1006.71 1006.51 1006.60 1006.44 1006.29 1006.28 1006.23 1006.09 1006.05 1005.95 1006.07 1006.38 1006.14 1005.85 1005.83 1006.06 1006.50 1006.52 1006.83 1006.73 1006.88 1006.38 1006.02 1005.71 1005.44 1005.24 1005.04 1004.75 1004.88 1004.79 1005.08 1005.39 1004.89 1005.51 1005.62
1007.33 1006.99 1006.87 1006.31 1006.69 1006.84 1006.93 1007.10 1007.09 1006.99 1006.61 1006.41 1006.37 1006.23 1006.12 1006.08 1005.97 1005.94 1005.87 1006.00 1006.22 1006.24 1005.86 1005.85 1006.13 1006.50 1006.53 1006.84 1006.89 1006.58 1006.35 1006.19 1006.01 1005.63 1004.85 1004.64 1004.40 1004.31 1004.37 1004.58 1005.53 1006.47 1006.70 1006.84
Thickness
5817 5810 5807 5815 5816 5812 5806 5802 5801 5811 5818 5810 5811 5813 5819 5827 5831 5827 5828 5829 5833 5834 5841 5842 5836 5831 5829 5823 5816 5811 5806 5805 5800 5795 5790 5788 5787 5784 5782 5779 5774 5768 5763 5758
5804 5802 5817 5817 5813 5805 5805 5800 5804 5813 5814 5811 5814 5809 5818 5821 5819 5821 5823 5819 5823 5830 5829 5829 5828 5825 5825 5819 5815 5811 5808 5806 5806 5798 5792 5790 5787 5789 5789 5786 5780 5772 5769 5765
5802 5809 5812 5804 5804 5796 5803 5798 5801 5798 5812 5818 5809 5803 5808 5820 5822 5822 5820 5817 5814 5812 5813 5815 5818 5820 5825 5817 5814 5811 5809 5808 5805 5789 5782 5785 5789 5787 5786 5789 5786 5782 5777 5774
5802 5812 5801 5801 5797 5803 5797 5805 5800 5797 5795 5794 5811 5789 5803 5808 5811 5814 5814 5812 5809 5806 5806 5807 5810 5809 5810 5813 5817 5813 5811 5808 5805 5791 5788 5790 5795 5789 5782 5792 5794 5790 5782 5780
5794 5797 5796 5792 5790 5801 5788 5804 5799 5798 5793 5792 5800 5787 5810 5809 5800 5805 5807 5807 5806 5804 5801 5799 5799 5801 5804 5807 5809 5810 5812 5808 5803 5795 5796 5795 5794 5798 5788 5790 5796 5790 5789 5784
5802 5809 5802 5800 5798 5798 5800 5795 5796 5797 5797 5776 5795 5783 5799 5803 5797 5798 5802 5800 5798 5798 5798 5796 5795 5794 5794 5798 5800 5801 5801 5801 5800 5794 5791 5795 5798 5794 5794 5791 5793 5793 5790 5788
5792 5794 5801 5802 5788 5798 5796 5791 5775 5770 5779 5774 5782 5771 5788 5797 5795 5792 5787 5791 5793 5793 5791 5789 5787 5785 5785 5785 5784 5786 5788 5788 5793 5794 5793 5790 5792 5793 5795 5798 5792 5794 5794 5794
5777 5764 5787 5794 5786 5776 5778 5776 5759 5731 5749 5768 5773 5756 5780 5787 5789 5788 5787 5787 5787 5786 5787 5783 5780 5777 5776 5775 5776 5777 5777 5777 5783 5789 5793 5796 5794 5796 5797 5799 5802 5798 5801 5801
5772 5769 5785 5784 5786 5781 5768 5762 5776 5755 5765 5745 5769 5776 5784 5782 5778 5780 5779 5778 5775 5773 5773 5772 5773 5770 5767 5766 5766 5766 5768 5771 5774 5784 5788 5790 5792 5789 5795 5800 5800 5799 5801 5802
5776 5757 5779 5774 5778 5775 5767 5771 5751 5758 5723 5724 5758 5744 5751 5758 5761 5766 5765 5764 5763 5763 5763 5764 5764 5763 5760 5757 5759 5760 5762 5762 5764 5772 5779 5780 5781 5783 5788 5794 5798 5798 5798 5796
5778 5764 5759 5766 5760 5762 5756 5755 5752 5754 5743 5727 5726 5748 5764 5757 5757 5753 5757 5755 5750 5749 5749 5750 5751 5753 5752 5749 5747 5749 5751 5751 5754 5760 5765 5769 5771 5776 5781 5787 5794 5793 5794 5795
5765 5761 5746 5755 5761 5759 5757 5754 5748 5730 5724 5736 5722 5727 5770 5757 5751 5750 5751 5748 5747 5744 5743 5742 5742 5741 5742 5739 5737 5739 5740 5742 5746 5750 5752 5753 5754 5762 5773 5784 5787 5790 5787 5791
5753 5744 5728 5739 5746 5748 5740 5748 5743 5735 5727 5713 5710 5728 5761 5752 5743 5742 5731 5734 5734 5735 5734 5732 5731 5729 5729 5728 5728 5729 5731 5732 5737 5739 5740 5743 5747 5747 5758 5768 5775 5778 5783 5787
5736 5735 5722 5722 5732 5737 5724 5730 5735 5726 5709 5718 5723 5730 5737 5737 5731 5730 5723 5722 5722 5723 5722 5722 5720 5719 5722 5721 5721 5719 5719 5723 5726 5725 5727 5730 5735 5743 5748 5758 5769 5774 5780 5782
5734 5714 5724 5727 5729 5725 5721 5723 5724 5717 5719 5708 5719 5717 5725 5724 5720 5714 5713 5713 5712 5712 5714 5712 5709 5710 5712 5713 5712 5712 5710 5711 5713 5713 5717 5719 5723 5730 5742 5754 5764 5773 5777 5781
5727 5706 5710 5705 5716 5714 5707 5717 5719 5718 5718 5719 5718 5710 5727 5714 5711 5709 5706 5704 5701 5703 5705 5704 5702 5700 5700 5700 5694 5693 5697 5702 5703 5705 5707 5710 5714 5717 5726 5739 5750 5760 5765 5773
5706 5704 5697 5693 5708 5699 5688 5712 5718 5717 5720 5714 5700 5711 5710 5701 5698 5697 5695 5694 5693 5694 5695 5694 5693 5692 5691 5690 5687 5686 5688 5691 5696 5698 5703 5704 5705 5706 5711 5721 5732 5741 5747 5754
5693 5688 5689 5686 5690 5666 5708 5720 5716 5705 5710 5710 5703 5700 5693 5689 5689 5690 5689 5684 5685 5686 5685 5684 5685 5681 5681 5680 5679 5679 5680 5681 5686 5691 5693 5697 5700 5705 5708 5708 5720 5732 5738 5743
5696 5686 5681 5674 5687 5702 5706 5712 5697 5693 5692 5702 5687 5685 5686 5685 5681 5684 5688 5681 5677 5677 5678 5678 5678 5671 5673 5671 5669 5669 5670 5676 5680 5684 5689 5692 5696 5697 5700 5706 5715 5724 5732 5738
5684 5677 5672 5678 5662 5662 5691 5694 5693 5686 5670 5694 5681 5677 5675 5673 5662 5673 5676 5674 5673 5675 5674 5673 5671 5669 5669 5664 5660 5657 5659 5668 5669 5674 5681 5686 5689 5692 5696 5700 5706 5716 5725 5731
5666 5662 5659 5666 5661 5674 5690 5687 5683 5652 5658 5677 5674 5669 5665 5660 5663 5666 5669 5671 5672 5673 5672 5669 5665 5665 5663 5661 5660 5660 5655 5659 5661 5666 5673 5678 5683 5687 5689 5694 5696 5706 5713 5718
5660 5657 5661 5659 5652 5650 5680 5672 5656 5669 5674 5672 5668 5665 5660 5661 5661 5661 5663 5663 5666 5666 5666 5660 5661 5659 5655 5655 5653 5652 5651 5654 5660 5662 5664 5669 5675 5680 5683 5687 5691 5698 5700 5701
5645 5658 5657 5660 5661 5663 5668 5661 5668 5667 5661 5662 5661 5662 5657 5654 5655 5656 5655 5656 5658 5660 5658 5657 5660 5655 5650 5646 5643 5643 5647 5650 5654 5660 5661 5665 5669 5672 5677 5681 5690 5689 5685 5687
5654 5654 5644 5648 5656 5659 5659 5662 5663 5662 5657 5659 5659 5655 5652 5648 5649 5648 5648 5648 5643 5648 5651 5652 5653 5646 5641 5638 5636 5636 5644 5648 5651 5653 5658 5662 5664 5665 5668 5677 5681 5688 5687 5686
5644 5636 5639 5639 5644 5647 5651 5652 5650 5651 5653 5648 5649 5647 5644 5644 5643 5642 5642 5640 5635 5639 5644 5645 5642 5635 5634 5631 5632 5632 5638 5643 5646 5649 5654 5659 5663 5664 5667 5668 5670 5678 5672 5674
5633 5633 5626 5630 5640 5636 5637 5640 5641 5638 5640 5642 5639 5637 5639 5639 5637 5637 5637 5635 5632 5633 5639 5639 5637 5632 5631 5627 5624 5630 5635 5635 5637 5641 5651 5657 5662 5666 5668 5670 5666 5654 5654 5653